This is the latest recevied weather packets stored in our database for station/object W6DSP. If no packets are shown the sender has not sent any weather packets the latest 10 day(s).
| Time | Temp. | Humidity | Pressure | Rain* | Wind** | Luminosity | Snow |
|---|---|---|---|---|---|---|---|
| 1777906756 | 19.44° C | 65% | 1006.1 hPa | 0 mm | - | - | - |
| 1777906055 | 18.89° C | 61% | 1006.4 hPa | 0 mm | - | - | - |
| 1777905297 | 18.33° C | 62% | 1006.4 hPa | 0 mm | - | - | - |
| 1777904597 | 17.78° C | 63% | 1006.5 hPa | 0 mm | - | - | - |
| 1777903895 | 17.22° C | 64% | 1006.8 hPa | 0 mm | - | - | - |
| 1777903172 | 16.67° C | 66% | 1007 hPa | 0 mm | - | - | - |
| 1777902415 | 16.11° C | 69% | 1007 hPa | 0 mm | - | - | - |
| 1777901669 | 15.56° C | 69% | 1007.1 hPa | 0 mm | - | - | - |
| 1777900951 | 14.44° C | 69% | 1007.1 hPa | 0 mm | - | - | - |
| 1777900198 | 14.44° C | 71% | 1007.2 hPa | 0 mm | - | - | - |
| 1777899479 | 13.89° C | 71% | 1007.3 hPa | 0 mm | - | - | - |
| 1777898785 | 13.33° C | 71% | 1007.2 hPa | 0 mm | - | - | - |
| 1777898050 | 12.78° C | 73% | 1007.5 hPa | 0 mm | - | - | - |
| 1777897328 | 12.22° C | 73% | 1007.6 hPa | 0 mm | - | - | - |
| 1777896617 | 11.67° C | 75% | 1007.5 hPa | 0 mm | - | - | - |
| 1777895874 | 11.11° C | 76% | 1007.6 hPa | 0 mm | - | - | - |
| 1777895137 | 10.56° C | 77% | 1007.5 hPa | 0 mm | - | - | - |
| 1777894423 | 10.56° C | 77% | 1007.6 hPa | 0 mm | - | - | - |
| 1777893676 | 10° C | 79% | 1007.3 hPa | 0 mm | - | - | - |
| 1777892951 | 10° C | 78% | 1007.4 hPa | 0 mm | - | - | - |
| 1777892248 | 10° C | 77% | 1007.4 hPa | 0 mm | - | - | - |
| 1777891512 | 10° C | 77% | 1007.5 hPa | 0 mm | - | - | - |
| 1777890819 | 10° C | 78% | 1007.5 hPa | 0 mm | - | - | - |
| 1777890060 | 10° C | 77% | 1007.4 hPa | 0 mm | - | - | - |
| 1777889370 | 10° C | 76% | 1007.5 hPa | 0 mm | - | - | - |
* Rain latest hour (hover to see other rain measurements)
** Current wind speed in m/s (hover to see current wind gust speed)